Regional Weather Roundup
Issued by NWS

Home | Current Version | Previous Version | Graphics & Text | Print | Product List | Glossary On
Versions: 1 2 3 4 5 6 7 8 9 10 11 12 13 14 15 16 17 18 19 20 21 22 23 24 25 26 27 28 29 30 31 32 33 34 35 36 37 38 39 40 41 42 43 44 45 46 47 48 49 50
000
ASUS43 KOAX 102202
RWRNE

WEATHER ROUNDUP FOR NEBRASKA
NATIONAL WEATHER SERVICE OMAHA NE
500 PM CDT THU JUL 10 2014

NOTES: SATELLITE DATA IS BEING USED TO AUGMENT CLOUD COVER ABOVE
       12000 FEET.
       "FAIR" INDICATES FEW OR NO CLOUDS BELOW 12,000 FEET WITH NO
       SIGNIFICANT WEATHER AND/OR OBSTRUCTIONS TO VISIBILITY.

  * THESE STATIONS DO NOT REPORT WEATHER SUCH AS RAIN...SNOW OR FOG.

NEZ001>004-019>022-054>056-102300-
NEBRASKA PANHANDLE

CITY           SKY/WX    TMP DP  RH WIND       PRES   REMARKS
SCOTTSBLUFF    PTSUNNY   89  54  30 S21G29    29.89R
ALLIANCE       SUNNY     97  50  20 SW8       29.86F HX  94
CHADRON        SUNNY     93  57  29 N8        29.83F HX  91
KIMBALL        TSTM      73  55  51 SE22G36   29.99R
SIDNEY         MOSUNNY   92  49  22 S10G18    29.93S
$$

NEZ057>060-069>072-079>082-102300-
SOUTHWEST NEBRASKA

CITY           SKY/WX    TMP DP  RH WIND       PRES   REMARKS
NORTH PLATTE   SUNNY     89  65  44 S17G25    29.88F HX  91
IMPERIAL       SUNNY     94  60  32 S21       29.88F HX  94
LEXINGTON      SUNNY     87  67  50 SE21      29.91F HX  90
MCCOOK         SUNNY     89  66  46 SE17      29.89F HX  91
OGALLALA       SUNNY     91  58  31 S16       29.88S HX  90
$$

NEZ005>010-023>029-035>040-094-102300-
NORTH CENTRAL NEBRASKA

CITY           SKY/WX    TMP DP  RH WIND       PRES   REMARKS
VALENTINE      SUNNY     92  63  38 S21       29.83F HX  93
AINSWORTH      SUNNY     86  66  51 S23       29.87S
BROKEN BOW     PTSUNNY   84  69  60 S20G29    29.92S
O`NEILL        PTSUNNY   83  66  55 S20       29.90F
ORD            PTSUNNY   83  67  58 S16G24    29.91F
THEDFORD       SUNNY     91  65  42 S22G28    29.89S HX  92
$$

NEZ041-046>049-061>064-073>077-083>087-102300-
SOUTH CENTRAL NEBRASKA

CITY           SKY/WX    TMP DP  RH WIND       PRES   REMARKS
GRAND ISLAND   MOSUNNY   83  68  60 SE12      29.95S
AURORA         SUNNY     84  68  58 S15G22    29.95S
HASTINGS       SUNNY     85  63  47 S17G26    29.93F
HEBRON         SUNNY     86  65  49 SE12      29.95F
HOLDREGE       SUNNY     85  63  47 SE18G26   29.92S
KEARNEY *      MOSUNNY   86  68  54 S17G23    29.93S
YORK           SUNNY     82  68  61 S14       29.95F
$$

NEZ011>018-030>034-042>045-102300-
NORTHEAST NEBRASKA

CITY           SKY/WX    TMP DP  RH WIND       PRES   REMARKS
NORFOLK        PTSUNNY   82  68  62 S15       29.94R
ALBION         PTSUNNY   80  66  62 S14       29.95S
BLAIR          MOSUNNY   82  65  55 S12G17    29.98S
FREMONT        SUNNY     87  63  45 S16G22    29.97S
TEKAMAH        MOSUNNY   88  67  49 S17G24    29.96S HX  91
WAYNE          PTSUNNY   85  67  54 S16G22    29.94F
$$

NEZ050>053-065>068-078-088>093-102300-
SOUTHEAST NEBRASKA

CITY           SKY/WX    TMP DP  RH WIND       PRES   REMARKS
LINCOLN        MOSUNNY   87  66  49 SE20      29.96F
OMAHA EPPLEY   PTSUNNY   85  65  51 S18G28    29.98R
BEATRICE       SUNNY     83  65  55 S12G22    29.97S
FALLS CITY     SUNNY     85  67  54 SE14      29.99S
NEBRASKA CITY  PTSUNNY   83  66  56 S15       29.99S
PLATTSMOUTH    MOSUNNY   82  65  56 SE13G20   29.99S
$$

NEZ044-045-051>053-067-102300-
OMAHA AREA

CITY           SKY/WX    TMP DP  RH WIND       PRES   REMARKS
OMAHA EPPLEY   PTSUNNY   85  65  51 S18G28    29.98R
BLAIR          MOSUNNY   82  65  55 S12G17    29.98S
FREMONT        SUNNY     87  63  45 S16G22    29.97S
MILLARD        SUNNY     84  67  55 SE16      29.97F
OFFUTT AFB     MOSUNNY   85  67  56 SE18G24   29.98S
PLATTSMOUTH    MOSUNNY   82  65  56 SE13G20   29.99S
WAHOO          FAIR      86  63  45 SE17      29.97R
$$


USA.gov is the U.S. government's official web portal to all federal, state and local government web resources and services.